TimeCST,TemperatureF,Dew PointF,Humidity,Sea Level PressureIn,VisibilityMPH,Wind Direction,Wind SpeedMPH,Gust SpeedMPH,PrecipitationIn,Events,Conditions,WindDirDegrees,DateUTC
12:52 AM,19.0,6.1,57,30.01,10.0,WSW,4.6,-,N/A,,Clear,240,2014-02-27 06:52:00
1:52 AM,21.0,8.1,57,30.00,10.0,WSW,8.1,-,N/A,,Clear,240,2014-02-27 07:52:00
2:52 AM,21.0,8.1,57,29.98,10.0,WSW,8.1,-,N/A,,Clear,240,2014-02-27 08:52:00
3:52 AM,23.0,8.1,53,29.98,10.0,West,6.9,-,N/A,,Clear,260,2014-02-27 09:52:00
4:52 AM,21.9,9.0,58,29.99,10.0,West,5.8,-,N/A,,Clear,260,2014-02-27 10:52:00
5:52 AM,21.9,10.0,60,30.01,10.0,West,5.8,-,N/A,,Clear,270,2014-02-27 11:52:00
6:52 AM,25.0,10.9,55,30.04,10.0,WNW,8.1,-,N/A,,Clear,300,2014-02-27 12:52:00
7:52 AM,28.0,12.9,53,30.07,10.0,NW,11.5,-,N/A,,Partly Cloudy,310,2014-02-27 13:52:00
8:52 AM,28.0,15.1,58,30.11,10.0,NNW,13.8,-,N/A,,Partly Cloudy,340,2014-02-27 14:52:00
9:52 AM,28.9,10.9,47,30.14,10.0,NNW,17.3,-,N/A,,Partly Cloudy,340,2014-02-27 15:52:00
10:52 AM,28.9,7.0,40,30.15,10.0,NNW,15.0,21.9,N/A,,Partly Cloudy,340,2014-02-27 16:52:00
11:52 AM,28.9,-4.0,24,30.16,10.0,NNW,11.5,21.9,N/A,,Clear,330,2014-02-27 17:52:00
12:52 PM,28.9,-2.9,25,30.14,10.0,NW,9.2,-,N/A,,Clear,310,2014-02-27 18:52:00
1:52 PM,30.9,-0.9,26,30.13,10.0,North,12.7,-,N/A,,Clear,350,2014-02-27 19:52:00
2:52 PM,30.0,1.0,29,30.13,10.0,North,6.9,-,N/A,,Clear,10,2014-02-27 20:52:00
3:52 PM,30.0,-0.0,28,30.12,10.0,NNW,8.1,-,N/A,,Clear,330,2014-02-27 21:52:00
4:52 PM,28.9,-0.0,29,30.12,10.0,NNW,5.8,-,N/A,,Clear,340,2014-02-27 22:52:00
5:52 PM,26.1,3.0,37,30.12,10.0,NE,5.8,-,N/A,,Clear,40,2014-02-27 23:52:00
6:52 PM,24.1,5.0,44,30.14,10.0,NNE,6.9,-,N/A,,Clear,20,2014-02-28 00:52:00
7:52 PM,23.0,6.1,48,30.14,10.0,NNE,8.1,-,N/A,,Clear,30,2014-02-28 01:52:00
8:52 PM,21.9,5.0,48,30.15,10.0,ENE,8.1,-,N/A,,Clear,60,2014-02-28 02:52:00
9:52 PM,21.0,6.1,53,30.16,10.0,ENE,3.5,-,N/A,,Clear,60,2014-02-28 03:52:00
10:52 PM,21.0,7.0,55,30.15,10.0,ENE,5.8,-,N/A,,Clear,70,2014-02-28 04:52:00
11:52 PM,19.0,7.0,59,30.15,10.0,ENE,5.8,-,N/A,,Clear,60,2014-02-28 05:52:00